Location: Csohesd
(46.2500°N, 22.6167°E)
Time: 06:04:21
(UTC+00:00)

MOS 1-B - Pass Details

Date: 21 October 2021
Orbit: 905 x 913 km, 99.4° (Epoch: 04 December)

Event Time Altitude Azimuth Distance (km) Brightness Sun altitude
Rises 15:57:45 0° 156° (SSE) 3,529 7.3 -5.1°
Reaches altitude 10° 16:00:09 10° 154° (SSE) 2,590 6.6 -5.5°
Maximum altitude 16:05:54 73° 71° (ENE) 954 4.3 -6.5°
Drops below altitude 10° 16:11:41 10° 348° (NNW) 2,602 6.8 -7.5°
Sets 16:14:06 0° 347° (NNW) 3,546 7.5 -7.9°
